EW1164 Weather Reports


Display with metric or nautical units.
time (UTC)temp
F
wind
direction
speed
MPH
gust
MPH
rain 1hr
in
rain 24hr
in
rain mn
in
humidity
%
barometer
mb
20260507043022 66 69 1.0 3.0 0.00 0.00 0.00 44 1008.2
20260507042521 66 48 1.0 3.0 0.00 0.00 0.00 44 1008.2
20260507042021 67 58 1.0 5.0 0.00 0.00 0.00 43 1008.3
20260507041526 67 26 1.0 5.0 0.00 0.00 0.00 42 1008.4
20260507041023 68 344 1.0 3.0 0.00 0.00 0.00 42 1008.4
20260507040521 68 137 0.0 3.0 0.00 0.00 0.00 40 1008.5
20260507040021 68 81 1.0 3.0 0.00 0.00 0.00 40 1008.3
20260507035520 69 68 2.0 4.0 0.00 0.00 0.00 39 1008.3
20260507035021 69 26 1.0 6.0 0.00 0.00 0.00 39 1008.3
20260507034522 69 65 2.0 6.0 0.00 0.00 0.00 38 1008.2
20260507034024 70 15 2.0 6.0 0.00 0.00 0.00 38 1008.2
20260507033524 70 128 2.0 11.0 0.00 0.00 0.00 37 1008.1
20260507033021 70 252 5.0 11.0 0.00 0.00 0.00 37 1007.9
20260507032519 70 164 5.0 11.0 0.00 0.00 0.00 37 1007.8
20260507032019 71 257 5.0 14.0 0.00 0.00 0.00 37 1007.7
20260507031519 71 200 9.0 19.0 0.00 0.00 0.00 36 1007.6
20260507031019 72 226 9.0 22.0 0.00 0.00 0.00 35 1007.6
20260507030519 72 250 9.0 22.0 0.00 0.00 0.00 35 1007.6
20260507030027 72 234 6.0 19.0 0.00 0.00 0.00 35 1007.6
20260507025518 73 245 8.0 19.0 0.00 0.00 0.00 35 1007.7
20260507025018 73 246 10.0 17.0 0.00 0.00 0.00 35 1007.8
20260507024524 73 220 8.0 18.0 0.00 0.00 0.00 38 1007.8
20260507024017 74 207 8.0 16.0 0.00 0.00 0.00 36 1007.8
20260507023517 74 237 9.0 20.0 0.00 0.00 0.00 38 1007.8
20260507023017 74 193 9.0 20.0 0.00 0.00 0.00 39 1007.8
20260507022517 74 216 9.0 20.0 0.00 0.00 0.00 39 1007.8
20260507022017 75 220 7.0 15.0 0.00 0.00 0.00 41 1007.8
20260507021516 75 213 7.0 15.0 0.00 0.00 0.00 41 1007.9
20260507021015 75 211 6.0 15.0 0.00 0.00 0.00 40 1008.0
20260507020515 75 186 6.0 14.0 0.00 0.00 0.00 40 1008.0
20260507020015 76 232 5.0 17.0 0.00 0.00 0.00 40 1008.0
20260507015516 76 190 8.0 17.0 0.00 0.00 0.00 40 1008.1
20260507015014 76 199 9.0 17.0 0.00 0.00 0.00 39 1008.2
20260507014514 76 195 8.0 13.0 0.00 0.00 0.00 39 1008.3
20260507014014 76 196 5.0 15.0 0.00 0.00 0.00 39 1008.3
20260507013511 76 196 5.0 15.0 0.00 0.00 0.00 38 1008.4
20260507013014 76 223 5.0 14.0 0.00 0.00 0.00 38 1008.5
20260507012510 76 205 6.0 11.0 0.00 0.00 0.00 38 1008.5
20260507012010 76 192 5.0 11.0 0.00 0.00 0.00 38 1008.6
20260507011509 76 246 5.0 10.0 0.00 0.00 0.00 37 1008.6
20260507011009 77 228 3.0 11.0 0.00 0.00 0.00 37 1008.6
20260507010509 77 257 6.0 14.0 0.00 0.00 0.00 37 1008.6
20260507010009 77 235 8.0 10.0 0.00 0.00 0.00 37 1008.6
20260507005509 77 252 7.0 11.0 0.00 0.00 0.00 37 1008.7
20260507005009 77 247 7.0 11.0 0.00 0.00 0.00 36 1008.6
20260507004508 77 198 5.0 17.0 0.00 0.00 0.00 37 1008.8
20260507004008 77 253 9.0 17.0 0.00 0.00 0.00 35 1008.8
20260507003508 77 236 9.0 15.0 0.00 0.00 0.00 35 1008.8
20260507003008 77 223 8.0 15.0 0.00 0.00 0.00 35 1008.8
20260507002508 77 207 6.0 14.0 0.00 0.00 0.00 35 1008.9
20260507002006 77 235 5.0 14.0 0.00 0.00 0.00 33 1008.8
20260507001508 77 253 7.0 13.0 0.00 0.00 0.00 32 1008.8
20260507001005 77 233 8.0 13.0 0.00 0.00 0.00 32 1008.8
20260507000506 77 240 6.0 15.0 0.00 0.00 0.00 33 1008.8
20260507000006 78 236 6.0 15.0 0.00 0.00 0.00 33 1008.9
20260506235505 78 188 7.0 13.0 0.00 0.00 0.00 31 1008.8
20260506235006 78 227 7.0 13.0 0.00 0.00 0.00 31 1008.9
20260506234505 78 260 7.0 16.0 0.00 0.00 0.00 33 1008.9
20260506234005 78 246 7.0 16.0 0.00 0.00 0.00 32 1008.9
20260506233507 78 232 4.0 14.0 0.00 0.00 0.00 32 1008.9
20260506233010 78 246 9.0 18.0 0.00 0.00 0.00 32 1008.9
20260506232503 78 248 10.0 18.0 0.00 0.00 0.00 32 1009.0
20260506232002 78 186 6.0 16.0 0.00 0.00 0.00 33 1009.1
20260506231502 78 236 6.0 16.0 0.00 0.00 0.00 32 1009.1
20260506231003 78 192 9.0 16.0 0.00 0.00 0.00 32 1009.2
20260506230500 78 234 7.0 11.0 0.00 0.00 0.00 33 1009.3
20260506230124 78 257 6.0 15.0 0.00 0.00 0.00 33 1009.3
20260506225600 79 247 9.0 15.0 0.00 0.00 0.00 32 1009.4
20260506225100 79 221 5.0 15.0 0.00 0.00 0.00 34 1009.4
20260506224602 78 204 7.0 20.0 0.00 0.00 0.00 33 1009.5
20260506224101 78 250 8.0 20.0 0.00 0.00 0.00 34 1009.6
20260506223558 78 245 6.0 19.0 0.00 0.00 0.00 34 1009.6
20260506223100 78 254 10.0 19.0 0.00 0.00 0.00 33 1009.7
20260506222557 78 233 6.0 15.0 0.00 0.00 0.00 34 1009.6
20260506222057 78 241 8.0 15.0 0.00 0.00 0.00 34 1009.8
20260506221619 78 244 10.0 17.0 0.00 0.00 0.00 33 1009.9
20260506221056 78 261 9.0 18.0 0.00 0.00 0.00 33 1009.8
20260506220556 78 259 11.0 18.0 0.00 0.00 0.00 33 1009.8
20260506220120 78 229 9.0 14.0 0.00 0.00 0.00 34 1009.8
20260506215555 79 215 9.0 14.0 0.00 0.00 0.00 33 1009.9
20260506215055 80 245 5.0 13.0 0.00 0.00 0.00 32 1009.9
20260506214555 78 240 8.0 13.0 0.00 0.00 0.00 32 1009.9
20260506214055 79 250 6.0 13.0 0.00 0.00 0.00 32 1010.0
20260506213553 80 230 7.0 14.0 0.00 0.00 0.00 32 1010.0
20260506213106 79 223 7.0 12.0 0.00 0.00 0.00 31 1010.1
20260506212553 79 232 7.0 13.0 0.00 0.00 0.00 32 1010.1
20260506212053 78 238 4.0 13.0 0.00 0.00 0.00 33 1010.1
20260506211553 79 231 6.0 15.0 0.00 0.00 0.00 33 1010.1
20260506211051 79 235 8.0 15.0 0.00 0.00 0.00 33 1010.2
20260506210550 78 222 8.0 13.0 0.00 0.00 0.00 33 1010.2
20260506210055 78 182 8.0 12.0 0.00 0.00 0.00 34 1010.2
20260506205548 78 205 6.0 9.0 0.00 0.00 0.00 35 1010.4
20260506205049 77 185 2.0 11.0 0.00 0.00 0.00 36 1010.4
20260506204547 77 232 7.0 11.0 0.00 0.00 0.00 35 1010.6
20260506204046 78 265 5.0 10.0 0.00 0.00 0.00 38 1010.7
20260506203547 78 269 4.0 7.0 0.00 0.00 0.00 39 1010.6
20260506203044 76 165 2.0 8.0 0.00 0.00 0.00 42 1010.7
20260506202544 77 254 4.0 8.0 0.00 0.00 0.00 42 1010.9
20260506202043 76 155 1.0 7.0 0.00 0.00 0.00 42 1010.9
20260506201547 76 203 2.0 6.0 0.00 0.00 0.00 43 1011.0
20260506201043 76 294 0.0 3.0 0.00 0.00 0.00 42 1011.1
20260506200541 76 293 1.0 3.0 0.00 0.00 0.00 42 1011.2
20260506200040 74 316 1.0 7.0 0.00 0.00 0.00 43 1011.3
20260506195543 74 16 1.0 8.0 0.00 0.00 0.00 44 1011.3
20260506195040 74 233 3.0 8.0 0.00 0.00 0.00 43 1011.4
20260506194540 74 145 2.0 7.0 0.00 0.00 0.00 43 1011.4
20260506194040 74 209 3.0 5.0 0.00 0.00 0.00 44 1011.4
20260506193540 74 218 2.0 10.0 0.00 0.00 0.00 42 1011.6
20260506193038 73 155 5.0 10.0 0.00 0.00 0.00 43 1011.7
20260506192537 73 189 3.0 8.0 0.00 0.00 0.00 45 1011.7
20260506192037 73 161 5.0 8.0 0.00 0.00 0.00 43 1011.8
20260506191537 73 248 4.0 8.0 0.00 0.00 0.00 45 1012.0
20260506191036 72 198 2.0 7.0 0.00 0.00 0.00 45 1012.0
20260506190537 72 252 3.0 11.0 0.00 0.00 0.00 46 1012.0
20260506190035 72 185 3.0 8.0 0.00 0.00 0.00 43 1012.0
20260506185534 71 236 2.0 6.0 0.00 0.00 0.00 45 1012.1
20260506185034 71 210 2.0 7.0 0.00 0.00 0.00 44 1012.2
20260506184540 71 214 3.0 7.0 0.00 0.00 0.00 44 1012.3
20260506184034 70 237 1.0 5.0 0.00 0.00 0.00 44 1012.4
20260506183534 70 226 1.0 5.0 0.00 0.00 0.00 43 1012.4
20260506183035 70 333 1.0 5.0 0.00 0.00 0.00 44 1012.3
20260506182532 70 169 1.0 5.0 0.00 0.00 0.00 42 1012.4
20260506182033 72 22 1.0 5.0 0.00 0.00 0.00 42 1012.4
20260506181532 69 52 2.0 5.0 0.00 0.00 0.00 42 1012.3
20260506181032 69 96 1.0 4.0 0.00 0.00 0.00 41 1012.5
20260506180532 69 156 0.0 3.0 0.00 0.00 0.00 42 1012.5
20260506180038 70 26 0.0 3.0 0.00 0.00 0.00 41 1012.6
20260506175531 68 24 1.0 3.0 0.00 0.00 0.00 42 1012.6
20260506175030 67 244 1.0 3.0 0.00 0.00 0.00 41 1012.7
20260506174533 69 193 0.0 4.0 0.00 0.00 0.00 42 1012.8
20260506174029 67 55 1.0 6.0 0.00 0.00 0.00 42 1012.7
20260506173530 66 321 0.0 6.0 0.00 0.00 0.00 43 1012.8
20260506173028 67 55 2.0 5.0 0.00 0.00 0.00 41 1012.9
20260506172527 66 76 2.0 5.0 0.00 0.00 0.00 41 1013.1
20260506172030 67 90 0.0 5.0 0.00 0.00 0.00 43 1013.1
20260506171538 66 93 1.0 5.0 0.00 0.00 0.00 43 1013.1
20260506171026 65 65 2.0 5.0 0.00 0.00 0.00 44 1013.1
20260506170530 64 136 2.0 5.0 0.00 0.00 0.00 44 1013.1
20260506170026 65 175 2.0 4.0 0.00 0.00 0.00 42 1013.2
20260506165527 65 147 0.0 4.0 0.00 0.00 0.00 44 1013.2
20260506165024 64 95 1.0 4.0 0.00 0.00 0.00 43 1013.3
20260506164525 64 111 2.0 5.0 0.00 0.00 0.00 43 1013.4
20260506164023 63 196 1.0 6.0 0.00 0.00 0.00 43 1013.3
20260506163523 64 142 1.0 7.0 0.00 0.00 0.00 42 1013.3
20260506163023 63 78 2.0 7.0 0.00 0.00 0.00 43 1013.4
20260506162520 62 172 2.0 3.0 0.00 0.00 0.00 45 1013.4
20260506162019 61 221 0.0 3.0 0.00 0.00 0.00 48 1013.4
20260506161520 60 252 1.0 3.0 0.00 0.00 0.00 52 1013.6
20260506161021 60 217 1.0 3.0 0.00 0.00 0.00 50 1013.6
20260506160518 61 167 0.0 3.0 0.00 0.00 0.00 51 1013.5
20260506160018 60 98 0.0 3.0 0.00 0.00 0.00 52 1013.5
20260506155518 59 197 1.0 5.0 0.00 0.00 0.00 55 1013.4
20260506155016 59 111 0.0 5.0 0.00 0.00 0.00 52 1013.4
20260506154519 58 197 0.0 3.0 0.00 0.00 0.00 58 1013.5
20260506154013 56 198 1.0 3.0 0.00 0.00 0.00 62 1013.5
20260506153512 56 207 1.0 4.0 0.00 0.00 0.00 64 1013.5
20260506153010 55 195 1.0 4.0 0.00 0.00 0.00 65 1013.5
20260506152513 55 207 2.0 3.0 0.00 0.00 0.00 66 1013.5
20260506152009 54 204 1.0 2.0 0.00 0.00 0.00 67 1013.5
20260506151508 54 198 0.0 2.0 0.00 0.00 0.00 69 1013.5
20260506151009 53 175 0.0 2.0 0.00 0.00 0.00 68 1013.5
20260506150513 51 202 0.0 2.0 0.00 0.00 0.00 74 1013.6
20260506150008 50 221 1.0 1.0 0.00 0.00 0.00 75 1013.7
20260506145508 50 221 0.0 2.0 0.00 0.00 0.00 76 1013.6
20260506145008 50 221 0.0 2.0 0.00 0.00 0.00 76 1013.6
20260506144508 49 190 0.0 1.0 0.00 0.00 0.00 77 1013.6
20260506144009 49 190 0.0 2.0 0.00 0.00 0.00 78 1013.6
20260506143507 49 217 0.0 2.0 0.00 0.00 0.00 78 1013.6
20260506143007 49 190 0.0 2.0 0.00 0.00 0.00 77 1013.6
20260506142508 48 184 0.0 2.0 0.00 0.00 0.00 78 1013.6
20260506142010 47 177 0.0 1.0 0.00 0.00 0.00 79 1013.7
20260506141506 47 205 0.0 2.0 0.00 0.00 0.00 79 1013.6
20260506141006 46 146 0.0 2.0 0.00 0.00 0.00 80 1013.6
20260506140506 47 119 0.0 2.0 0.00 0.00 0.00 79 1013.6
20260506140011 47 71 0.0 2.0 0.00 0.00 0.00 80 1013.6
20260506135506 47 71 0.0 2.0 0.00 0.00 0.00 79 1013.6
20260506135004 46 71 0.0 0.0 0.00 0.00 0.00 81 1013.6
20260506134505 45 71 0.0 1.0 0.00 0.00 0.00 82 1013.5
20260506134004 45 71 0.0 1.0 0.00 0.00 0.00 82 1013.5
20260506133503 45 71 0.0 2.0 0.00 0.00 0.00 83 1013.5
20260506133003 45 71 0.0 2.0 0.00 0.00 0.00 83 1013.5
20260506132502 44 71 0.0 2.0 0.00 0.00 0.00 84 1013.5
20260506132002 44 71 0.0 2.0 0.00 0.00 0.00 83 1013.4
20260506131503 44 71 0.0 1.0 0.00 0.00 0.00 82 1013.5
20260506131100 44 71 0.0 2.0 0.00 0.00 0.00 82 1013.4
20260506131001 45 71 0.0 2.0 0.00 0.00 0.00 81 1013.4
20260506130600 45 71 0.0 2.0 0.00 0.00 0.00 81 1013.3
20260506130059 45 71 1.0 2.0 0.00 0.00 0.00 81 1013.2
20260506125558 45 68 1.0 2.0 0.00 0.00 0.00 81 1013.1
20260506125058 44 68 1.0 1.0 0.00 0.00 0.00 82 1013.1
20260506124558 44 65 0.0 2.0 0.00 0.00 0.00 82 1013.0
20260506124058 44 42 0.0 2.0 0.00 0.00 0.00 82 1013.0
20260506123557 44 42 0.0 2.0 0.00 0.00 0.00 81 1013.0
20260506123057 44 42 0.0 2.0 0.00 0.00 0.00 81 1013.0
20260506122556 44 42 0.0 2.0 0.00 0.00 0.00 81 1012.9
20260506122054 44 67 0.0 2.0 0.00 0.00 0.00 81 1012.9
20260506121558 44 67 0.0 2.0 0.00 0.00 0.00 81 1012.8
20260506121053 45 79 0.0 2.0 0.00 0.00 0.00 80 1012.7
20260506120552 45 88 0.0 2.0 0.00 0.00 0.00 80 1012.7
20260506120053 45 88 0.0 2.0 0.00 0.00 0.00 78 1012.7
20260506115550 46 90 0.0 2.0 0.00 0.00 0.00 78 1012.6
20260506115048 46 102 0.0 2.0 0.00 0.00 0.00 77 1012.6
20260506114553 46 109 0.0 1.0 0.00 0.00 0.00 76 1012.6
20260506114048 46 111 0.0 1.0 0.00 0.00 0.00 76 1012.6
20260506113547 47 111 0.0 1.0 0.00 0.00 0.00 76 1012.5
20260506113046 47 96 0.0 2.0 0.00 0.00 0.00 75 1012.5
20260506112547 47 98 0.0 2.0 0.00 0.00 0.00 75 1012.6
20260506112045 47 98 1.0 1.0 0.00 0.00 0.00 75 1012.5
20260506111547 47 65 0.0 1.0 0.00 0.00 0.00 75 1012.5
20260506111045 47 65 0.0 1.0 0.00 0.00 0.00 75 1012.5
20260506110545 47 63 1.0 1.0 0.00 0.00 0.00 76 1012.4
20260506110044 47 63 0.0 1.0 0.00 0.00 0.00 76 1012.4
20260506105544 47 63 0.0 1.0 0.00 0.00 0.00 75 1012.4
20260506105044 47 63 0.0 1.0 0.00 0.00 0.00 76 1012.3
20260506104545 47 61 1.0 1.0 0.00 0.00 0.00 76 1012.3
20260506104042 46 39 0.0 1.0 0.00 0.00 0.00 76 1012.4
20260506103541 47 39 0.0 1.0 0.00 0.00 0.00 75 1012.3
20260506103040 47 39 0.0 1.0 0.00 0.00 0.00 75 1012.3
20260506102540 47 39 0.0 1.0 0.00 0.00 0.00 75 1012.3
20260506102040 47 39 1.0 1.0 0.00 0.00 0.00 76 1012.3
20260506101543 47 53 0.0 2.0 0.00 0.00 0.00 75 1012.3
20260506101039 47 47 0.0 2.0 0.00 0.00 0.00 75 1012.2
20260506100538 47 34 0.0 1.0 0.00 0.00 0.00 75 1012.3
20260506100044 47 34 0.0 1.0 0.00 0.00 0.00 75 1012.3
20260506095537 48 34 0.0 1.0 0.00 0.00 0.00 75 1012.3
20260506095036 48 34 1.0 1.0 0.00 0.00 0.00 75 1012.3
20260506094535 48 34 0.0 2.0 0.00 0.00 0.00 74 1012.3
20260506094035 49 34 0.0 2.0 0.00 0.00 0.00 75 1012.2
20260506093534 49 34 0.0 2.0 0.00 0.00 0.00 76 1012.3
20260506093034 49 34 0.0 2.0 0.00 0.00 0.00 74 1012.3
20260506092533 49 34 0.0 0.0 0.00 0.00 0.00 74 1012.3
20260506092033 49 34 0.0 0.0 0.00 0.00 0.00 73 1012.2
20260506091532 49 34 0.0 2.0 0.00 0.00 0.00 72 1012.2
20260506091031 49 34 0.0 2.0 0.00 0.00 0.00 71 1012.2
20260506090530 49 34 0.0 2.0 0.00 0.00 0.00 72 1012.1
20260506090028 49 34 0.0 2.0 0.00 0.00 0.00 71 1012.1
20260506085527 49 34 0.0 2.0 0.00 0.00 0.00 70 1012.0
20260506085026 50 34 0.0 2.0 0.00 0.00 0.00 68 1012.0
20260506084526 50 34 0.0 2.0 0.00 0.00 0.00 68 1012.0
20260506084026 50 34 0.0 2.0 0.00 0.00 0.00 69 1011.9
20260506083526 50 34 0.0 2.0 0.00 0.00 0.00 69 1012.0
20260506083024 50 33 0.0 2.0 0.00 0.00 0.00 71 1011.9
20260506082523 50 33 0.0 2.0 0.00 0.00 0.00 68 1011.9
20260506082023 50 34 0.0 2.0 0.00 0.00 0.00 68 1011.8
20260506081522 51 34 0.0 2.0 0.00 0.00 0.00 68 1011.8
20260506081022 51 34 0.0 2.0 0.00 0.00 0.00 67 1011.8
20260506080522 51 34 0.0 2.0 0.00 0.00 0.00 67 1011.8
20260506073516 53 52 0.0 2.0 0.00 0.00 0.00 64 1011.6
20260506073016 53 52 0.0 2.0 0.00 0.00 0.00 62 1011.5
20260506072515 53 52 0.0 2.0 0.00 0.00 0.00 63 1011.5
20260506072014 53 38 0.0 2.0 0.00 0.00 0.00 64 1011.5
20260506071514 53 41 0.0 2.0 0.00 0.00 0.00 64 1011.5
20260506071013 53 40 1.0 1.0 0.00 0.00 0.00 64 1011.4
20260506070511 53 37 1.0 2.0 0.00 0.00 0.00 64 1011.3
20260506062508 55 22 1.0 1.0 0.00 0.00 0.00 59 1011.0
20260506062008 55 22 0.0 1.0 0.00 0.00 0.00 59 1011.0
20260506061508 55 22 0.0 1.0 0.00 0.00 0.00 58 1011.0
20260506061011 55 22 1.0 1.0 0.00 0.00 0.00 57 1011.0
20260506060508 56 5 0.0 1.0 0.00 0.00 0.00 57 1011.0
20260506051003 59 35 0.0 2.0 0.00 0.00 0.00 51 1010.6
20260506050501 59 35 0.0 1.0 0.00 0.00 0.00 50 1010.5
20260506045103 60 35 0.0 2.0 0.00 0.00 0.00 50 1010.3
20260506045002 60 35 0.0 2.0 0.00 0.00 0.00 50 1010.3
20260506044500 60 36 1.0 2.0 0.00 0.00 0.00 51 1010.2
20260506044100 61 34 1.0 2.0 0.00 0.00 0.00 51 1010.3
20260506043600 61 34 0.0 2.0 0.00 0.00 0.00 47 1010.3
20260506043100 61 34 1.0 2.0 0.00 0.00 0.00 48 1010.2